Terug naar catalogus

PLEIADES 1B

ActiefWetenschapSSO
NORAD 39019·PAYLOAD·🇫🇷 France

Gelanceerd Dec 2, 2012 vanaf Guiana Space Centre

Loading…

Volgende Passages (komende 24 uur)

TLE

VersSource: Space-Track

Epoch: Sep 14, 2026, 12:52 UTC

1 39019U 12068A   26257.53624803  .00000183  00000-0  49062-4 0  9999
2 39019  98.1884 331.3243 0001255  99.8653 260.2688 14.58565455733872

Volg PLEIADES 1B in realtime met AllMySat

Download on the App Store